| time (UTC) | temp F | wind direction | speed knots | gust knots | rain 1hr in | rain 24hr in | rain mn in | humidity % | barometer mb |
| 20260906211550 | 91 | 144 | 0.9 | 7.0 | 0.00 | 0.00 | 0.00 | 71 | 1015.6 |
| 20260906210046 | 91 | 122 | 0.0 | 7.8 | 0.00 | 0.00 | 0.00 | 70 | 1015.7 |
| 20260906204544 | 90 | 113 | 3.5 | 7.8 | 0.00 | 0.00 | 0.00 | 69 | 1016.1 |
| 20260906203041 | 91 | 21 | 0.9 | 7.8 | 0.00 | 0.00 | 0.00 | 69 | 1016.1 |
| 20260906201559 | 89 | 171 | 1.7 | 9.6 | 0.00 | 0.00 | 0.00 | 70 | 1016.1 |
| 20260906200036 | 89 | 85 | 0.9 | 9.6 | 0.00 | 0.00 | 0.00 | 72 | 1016.1 |
| 20260906194538 | 89 | 24 | 1.7 | 11.3 | 0.00 | 0.00 | 0.00 | 71 | 1016.2 |
| 20260906193036 | 88 | 10 | 4.3 | 9.6 | 0.00 | 0.00 | 0.00 | 73 | 1016.4 |
| 20260906191533 | 89 | 147 | 0.9 | 9.6 | 0.00 | 0.00 | 0.00 | 75 | 1016.5 |
| 20260906190033 | 89 | 175 | 2.6 | 7.8 | 0.00 | 0.00 | 0.00 | 74 | 1016.5 |
| 20260906184525 | 88 | 37 | 0.9 | 10.4 | 0.00 | 0.00 | 0.00 | 75 | 1016.9 |
| 20260906183025 | 89 | 114 | 2.6 | 9.6 | 0.00 | 0.00 | 0.00 | 74 | 1017.3 |
| 20260906181622 | 88 | 104 | 3.5 | 7.8 | 0.00 | 0.00 | 0.00 | 73 | 1017.4 |
| 20260906180120 | 89 | 43 | 0.9 | 5.2 | 0.00 | 0.00 | 0.00 | 74 | 1017.4 |
| 20260906174516 | 89 | 106 | 0.9 | 8.7 | 0.00 | 0.00 | 0.00 | 73 | 1017.4 |
| 20260906173020 | 89 | 121 | 0.9 | 7.8 | 0.00 | 0.00 | 0.00 | 75 | 1017.5 |
| 20260906171510 | 89 | 64 | 0.9 | 6.1 | 0.00 | 0.00 | 0.00 | 76 | 1017.6 |
| 20260906170007 | 89 | 80 | 1.7 | 6.1 | 0.00 | 0.00 | 0.00 | 76 | 1017.8 |
| 20260906164503 | 88 | 348 | 0.0 | 5.2 | 0.00 | 0.00 | 0.00 | 78 | 1018.0 |
| 20260906163002 | 87 | 90 | 0.9 | 7.0 | 0.00 | 0.00 | 0.00 | 78 | 1018.0 |
| 20260906161601 | 87 | 83 | 0.9 | 9.6 | 0.00 | 0.00 | 0.00 | 79 | 1018.2 |
| 20260906160054 | 86 | 97 | 2.6 | 9.6 | 0.00 | 0.00 | 0.00 | 80 | 1018.2 |
| 20260906154553 | 86 | 18 | 1.7 | 6.1 | 0.00 | 0.00 | 0.00 | 80 | 1018.1 |
| 20260906153105 | 86 | 68 | 0.0 | 5.2 | 0.00 | 0.00 | 0.00 | 79 | 1018.0 |
| 20260906151544 | 84 | 69 | 0.9 | 7.0 | 0.00 | 0.00 | 0.00 | 79 | 1017.8 |
| 20260906150039 | 84 | 111 | 1.7 | 5.2 | 0.00 | 0.00 | 0.00 | 79 | 1017.4 |
| 20260906144537 | 83 | 341 | 0.9 | 7.0 | 0.00 | 0.00 | 0.00 | 80 | 1017.4 |
| 20260906143032 | 82 | 50 | 2.6 | 6.1 | 0.00 | 0.00 | 0.00 | 80 | 1017.2 |
| 20260906141528 | 82 | 123 | 0.9 | 5.2 | 0.00 | 0.00 | 0.00 | 79 | 1017.3 |
| 20260906140029 | 82 | 21 | 1.7 | 5.2 | 0.00 | 0.00 | 0.00 | 79 | 1017.2 |
| 20260906134522 | 81 | 39 | 1.7 | 5.2 | 0.00 | 0.00 | 0.00 | 79 | 1017.2 |
| 20260906133020 | 80 | 141 | 0.0 | 5.2 | 0.00 | 0.00 | 0.00 | 79 | 1017.4 |
| 20260906131517 | 80 | 17 | 0.0 | 1.7 | 0.00 | 0.00 | 0.00 | 78 | 1017.5 |
| 20260906130017 | 79 | 62 | 0.0 | 4.3 | 0.00 | 0.00 | 0.00 | 79 | 1017.4 |
| 20260906124516 | 78 | 50 | 0.0 | 0.0 | 0.00 | 0.00 | 0.00 | 78 | 1017.3 |
| 20260906123024 | 77 | 6 | 0.0 | 3.5 | 0.00 | 0.00 | 0.00 | 79 | 1017.1 |
| 20260906121505 | 0 | 0.0 | 0.0 | 0.00 | 0.00 | 0.00 | 1017.1 | ||
| 20260906120107 | 0 | 0.0 | 0.0 | 0.00 | 0.00 | 0.00 | 1016.9 | ||
| 20260906114604 | 0 | 0.0 | 0.0 | 0.00 | 0.00 | 0.00 | 1016.7 | ||
| 20260906113049 | 0 | 0.0 | 0.0 | 0.00 | 0.00 | 0.00 | 1016.6 | ||
| 20260906111551 | 0 | 0.0 | 0.0 | 0.00 | 0.00 | 0.00 | 1016.7 | ||
| 20260906110037 | 0 | 0.0 | 0.0 | 0.00 | 0.00 | 0.00 | 1016.6 | ||
| 20260906104534 | 0 | 0.0 | 0.0 | 0.00 | 0.00 | 0.00 | 1016.3 | ||
| 20260906103027 | 0 | 0.0 | 0.0 | 0.00 | 0.00 | 0.00 | 1016.4 | ||
| 20260906101521 | 0 | 133 | 0.0 | 0.0 | 0.00 | 0.00 | 0.00 | 1016.2 | |
| 20260906100018 | 78 | 28 | 0.0 | 1.7 | 0.00 | 0.00 | 0.00 | 84 | 1016.0 |
| 20260906094515 | 79 | 54 | 0.0 | 0.0 | 0.00 | 0.00 | 0.00 | 85 | 1016.0 |
| 20260906093026 | 79 | 54 | 0.0 | 0.9 | 0.00 | 0.00 | 0.00 | 85 | 1015.8 |
| 20260906091510 | 79 | 115 | 0.0 | 0.9 | 0.00 | 0.00 | 0.00 | 85 | 1015.6 |
| 20260906090009 | 80 | 47 | 0.0 | 0.9 | 0.00 | 0.00 | 0.00 | 85 | 1015.4 |
| 20260906084506 | 80 | 51 | 0.0 | 2.6 | 0.00 | 0.00 | 0.00 | 85 | 1015.4 |
| 20260906083005 | 79 | 152 | 0.0 | 0.9 | 0.00 | 0.00 | 0.00 | 85 | 1015.2 |
| 20260906081502 | 79 | 42 | 0.0 | 0.9 | 0.00 | 0.00 | 0.00 | 86 | 1015.3 |
| 20260906074607 | 79 | 36 | 0.0 | 0.0 | 0.00 | 0.00 | 0.00 | 86 | 1015.0 |
| 20260906073103 | 79 | 36 | 0.0 | 0.0 | 0.00 | 0.00 | 0.00 | 87 | 1015.1 |
| 20260906071552 | 79 | 36 | 0.0 | 0.0 | 0.00 | 0.00 | 0.00 | 87 | 1015.2 |
| 20260906070149 | 79 | 36 | 0.0 | 0.0 | 0.00 | 0.00 | 0.00 | 87 | 1015.3 |
| 20260906064546 | 79 | 36 | 0.0 | 0.0 | 0.00 | 0.00 | 0.00 | 88 | 1015.4 |
| 20260906063043 | 79 | 36 | 0.0 | 0.0 | 0.00 | 0.00 | 0.00 | 88 | 1015.5 |
| 20260906061550 | 79 | 36 | 0.0 | 0.0 | 0.00 | 0.00 | 0.00 | 88 | 1015.6 |
| 20260906060037 | 79 | 36 | 0.0 | 0.0 | 0.00 | 0.00 | 0.00 | 88 | 1015.6 |
| 20260906054534 | 80 | 36 | 0.0 | 0.0 | 0.00 | 0.00 | 0.00 | 88 | 1015.7 |
| 20260906053037 | 80 | 36 | 0.0 | 0.0 | 0.00 | 0.00 | 0.00 | 88 | 1015.7 |
| 20260906051528 | 81 | 36 | 0.0 | 0.0 | 0.00 | 0.00 | 0.00 | 88 | 1015.5 |
| 20260906050027 | 81 | 36 | 0.0 | 0.0 | 0.00 | 0.00 | 0.00 | 88 | 1015.5 |
| 20260906044523 | 81 | 36 | 0.0 | 0.0 | 0.00 | 0.00 | 0.00 | 88 | 1015.6 |
| 20260906043038 | 82 | 36 | 0.0 | 0.0 | 0.00 | 0.00 | 0.00 | 87 | 1015.4 |
| 20260906041520 | 82 | 36 | 0.0 | 0.0 | 0.00 | 0.00 | 0.00 | 87 | 1015.4 |
| 20260906040019 | 82 | 36 | 0.0 | 0.0 | 0.00 | 0.00 | 0.00 | 87 | 1015.2 |
| 20260906034523 | 82 | 36 | 0.0 | 0.0 | 0.00 | 0.00 | 0.00 | 87 | 1015.1 |
| 20260906033016 | 83 | 36 | 0.0 | 0.0 | 0.00 | 0.00 | 0.00 | 86 | 1015.1 |
| 20260906031514 | 83 | 36 | 0.0 | 0.0 | 0.00 | 0.00 | 0.00 | 85 | 1014.7 |
| 20260906030010 | 83 | 36 | 0.0 | 0.0 | 0.00 | 0.00 | 0.00 | 86 | 1014.6 |
| 20260906024509 | 84 | 36 | 0.0 | 0.0 | 0.00 | 0.00 | 0.00 | 85 | 1014.5 |
| 20260906023007 | 85 | 36 | 0.0 | 0.0 | 0.00 | 0.00 | 0.00 | 83 | 1014.1 |
| 20260906021505 | 85 | 36 | 0.0 | 0.0 | 0.00 | 0.00 | 0.00 | 82 | 1014.0 |
| 20260906020003 | 86 | 36 | 0.0 | 0.9 | 0.00 | 0.00 | 0.00 | 82 | 1013.8 |
| 20260906014503 | 86 | 36 | 0.0 | 0.0 | 0.00 | 0.00 | 0.00 | 82 | 1013.8 |
| 20260906013101 | 86 | 36 | 0.0 | 0.0 | 0.00 | 0.00 | 0.00 | 81 | 1013.5 |
| 20260906011559 | 87 | 36 | 0.0 | 0.0 | 0.00 | 0.00 | 0.00 | 80 | 1013.2 |
| 20260906010057 | 88 | 36 | 0.0 | 0.0 | 0.00 | 0.00 | 0.00 | 79 | 1013.1 |
| 20260906004608 | 90 | 36 | 0.0 | 0.0 | 0.00 | 0.00 | 0.00 | 77 | 1012.9 |
| 20260906003055 | 92 | 36 | 0.0 | 0.0 | 0.00 | 0.00 | 0.00 | 73 | 1013.0 |
| 20260906001552 | 94 | 36 | 0.0 | 1.7 | 0.00 | 0.00 | 0.00 | 70 | 1012.9 |
| 20260905234554 | 98 | 116 | 0.0 | 3.5 | 0.00 | 0.00 | 0.00 | 64 | 1012.9 |
| 20260905233045 | 98 | 42 | 0.9 | 2.6 | 0.00 | 0.00 | 0.00 | 63 | 1013.0 |
| 20260905231543 | 98 | 3 | 0.0 | 6.1 | 0.00 | 0.00 | 0.00 | 63 | 1013.1 |
| 20260905230044 | 98 | 40 | 0.9 | 5.2 | 0.00 | 0.00 | 0.00 | 62 | 1013.0 |
| 20260905224546 | 99 | 26 | 1.7 | 5.2 | 0.00 | 0.00 | 0.00 | 61 | 1012.8 |
| 20260905223040 | 99 | 14 | 1.7 | 5.2 | 0.00 | 0.00 | 0.00 | 62 | 1012.9 |
| 20260905221542 | 100 | 342 | 2.6 | 6.1 | 0.00 | 0.00 | 0.00 | 59 | 1012.8 |
| 20260905220038 | 100 | 337 | 1.7 | 5.2 | 0.00 | 0.00 | 0.00 | 58 | 1012.9 |
| 20260905214538 | 100 | 12 | 2.6 | 7.0 | 0.00 | 0.00 | 0.00 | 59 | 1012.9 |
| 20260905213037 | 100 | 346 | 4.3 | 8.7 | 0.00 | 0.00 | 0.00 | 59 | 1012.8 |